| time (UTC) | temp F | wind direction | speed MPH | gust MPH | rain 1hr in | rain 24hr in | rain mn in | humidity % | barometer mb |
| 20260905161330 | 72 | 77 | 3.0 | 7.0 | 0.00 | 0.01 | 0.01 | 92 | 1017.3 |
| 20260905160830 | 71 | 65 | 3.0 | 7.0 | 0.00 | 0.01 | 0.01 | 92 | 1017.3 |
| 20260905160329 | 71 | 74 | 3.0 | 9.0 | 0.00 | 0.01 | 0.01 | 93 | 1017.2 |
| 20260905155828 | 71 | 117 | 4.0 | 10.0 | 0.00 | 0.01 | 0.01 | 92 | 1017.2 |
| 20260905155328 | 71 | 41 | 5.0 | 10.0 | 0.00 | 0.01 | 0.01 | 92 | 1017.2 |
| 20260905154823 | 71 | 70 | 4.0 | 10.0 | 0.00 | 0.01 | 0.01 | 92 | 1017.1 |
| 20260905154323 | 71 | 45 | 4.0 | 9.0 | 0.00 | 0.01 | 0.01 | 92 | 1017.0 |
| 20260905153824 | 71 | 0 | 4.0 | 10.0 | 0.00 | 0.01 | 0.01 | 92 | 1017.1 |
| 20260905153323 | 71 | 84 | 3.0 | 10.0 | 0.00 | 0.01 | 0.01 | 92 | 1017.0 |
| 20260905152824 | 71 | 98 | 3.0 | 9.0 | 0.00 | 0.01 | 0.01 | 93 | 1017.0 |
| 20260905152555 | 71 | 40 | 3.0 | 9.0 | 0.00 | 0.01 | 0.01 | 93 | 1017.0 |
| 20260905151824 | 71 | 13 | 3.0 | 9.0 | 0.00 | 0.01 | 0.01 | 93 | 1017.0 |
| 20260905151548 | 71 | 94 | 3.0 | 10.0 | 0.00 | 0.01 | 0.01 | 93 | 1017.0 |
| 20260905150820 | 71 | 59 | 4.0 | 10.0 | 0.00 | 0.01 | 0.01 | 94 | 1016.9 |
| 20260905150816 | 71 | 76 | 4.0 | 10.0 | 0.00 | 0.01 | 0.01 | 94 | 1017.0 |
| 20260905145815 | 71 | 71 | 5.0 | 10.0 | 0.00 | 0.01 | 0.01 | 94 | 1016.6 |
| 20260905145317 | 71 | 63 | 5.0 | 9.0 | 0.00 | 0.01 | 0.01 | 94 | 1016.6 |
| 20260905144815 | 71 | 82 | 5.0 | 10.0 | 0.00 | 0.01 | 0.01 | 95 | 1016.5 |
| 20260905144315 | 71 | 42 | 4.0 | 11.0 | 0.00 | 0.01 | 0.01 | 95 | 1016.4 |
| 20260905144041 | 71 | 93 | 5.0 | 12.0 | 0.00 | 0.01 | 0.01 | 96 | 1016.3 |
| 20260905143312 | 71 | 5 | 4.0 | 12.0 | 0.00 | 0.01 | 0.01 | 96 | 1016.2 |
| 20260905143041 | 71 | 23 | 4.0 | 12.0 | 0.00 | 0.01 | 0.01 | 96 | 1016.2 |
| 20260905142316 | 70 | 69 | 5.0 | 12.0 | 0.00 | 0.01 | 0.01 | 96 | 1016.0 |
| 20260905141810 | 70 | 34 | 5.0 | 12.0 | 0.00 | 0.01 | 0.01 | 97 | 1016.1 |
| 20260905141539 | 70 | 46 | 4.0 | 12.0 | 0.00 | 0.01 | 0.01 | 97 | 1016.2 |
| 20260905140809 | 70 | 46 | 4.0 | 11.0 | 0.00 | 0.01 | 0.01 | 97 | 1016.3 |
| 20260905140310 | 70 | 84 | 4.0 | 9.0 | 0.00 | 0.01 | 0.01 | 97 | 1016.3 |
| 20260905135805 | 70 | 59 | 4.0 | 9.0 | 0.00 | 0.01 | 0.01 | 97 | 1016.3 |
| 20260905135537 | 70 | 20 | 3.0 | 9.0 | 0.00 | 0.01 | 0.01 | 97 | 1016.4 |
| 20260905134806 | 70 | 24 | 4.0 | 10.0 | 0.00 | 0.01 | 0.01 | 98 | 1016.4 |
| 20260905134306 | 70 | 62 | 4.0 | 10.0 | 0.00 | 0.01 | 0.01 | 97 | 1016.4 |
| 20260905133810 | 70 | 45 | 4.0 | 8.0 | 0.00 | 0.01 | 0.01 | 97 | 1016.6 |
| 20260905133307 | 70 | 49 | 4.0 | 9.0 | 0.00 | 0.01 | 0.01 | 97 | 1016.6 |
| 20260905132801 | 70 | 20 | 3.0 | 9.0 | 0.00 | 0.01 | 0.01 | 98 | 1016.5 |
| 20260905132301 | 70 | 32 | 3.0 | 10.0 | 0.00 | 0.01 | 0.01 | 98 | 1016.4 |
| 20260905131802 | 69 | 37 | 4.0 | 10.0 | 0.00 | 0.01 | 0.01 | 98 | 1016.4 |
| 20260905131301 | 69 | 342 | 3.0 | 9.0 | 0.00 | 0.01 | 0.01 | 97 | 1016.3 |
| 20260905130802 | 70 | 26 | 3.0 | 9.0 | 0.00 | 0.01 | 0.01 | 98 | 1016.2 |
| 20260905130302 | 69 | 40 | 3.0 | 9.0 | 0.00 | 0.01 | 0.01 | 98 | 1016.0 |
| 20260905130028 | 69 | 31 | 3.0 | 11.0 | 0.00 | 0.01 | 0.01 | 98 | 1015.9 |
| 20260905125530 | 69 | 40 | 3.0 | 11.0 | 0.00 | 0.01 | 0.01 | 97 | 1015.9 |
| 20260905124757 | 69 | 33 | 3.0 | 10.0 | 0.00 | 0.01 | 0.01 | 97 | 1015.9 |
| 20260905124257 | 69 | 42 | 3.0 | 9.0 | 0.00 | 0.01 | 0.01 | 97 | 1015.9 |
| 20260905123800 | 69 | 65 | 3.0 | 9.0 | 0.00 | 0.01 | 0.01 | 97 | 1015.8 |
| 20260905123258 | 69 | 34 | 2.0 | 8.0 | 0.00 | 0.01 | 0.01 | 97 | 1015.8 |
| 20260905122752 | 69 | 29 | 2.0 | 7.0 | 0.00 | 0.01 | 0.01 | 97 | 1015.6 |
| 20260905122254 | 69 | 69 | 3.0 | 9.0 | 0.00 | 0.01 | 0.01 | 97 | 1015.6 |
| 20260905121754 | 69 | 51 | 3.0 | 9.0 | 0.00 | 0.01 | 0.01 | 97 | 1015.5 |
| 20260905121254 | 69 | 28 | 3.0 | 8.0 | 0.00 | 0.01 | 0.01 | 97 | 1015.5 |
| 20260905120755 | 69 | 14 | 3.0 | 8.0 | 0.00 | 0.01 | 0.01 | 97 | 1015.3 |
| 20260905120255 | 69 | 27 | 3.0 | 8.0 | 0.00 | 0.01 | 0.01 | 97 | 1015.3 |
| 20260905115746 | 69 | 20 | 3.0 | 8.0 | 0.01 | 0.01 | 0.01 | 97 | 1015.3 |
| 20260905115242 | 69 | 38 | 4.0 | 11.0 | 0.01 | 0.01 | 0.01 | 97 | 1015.2 |
| 20260905114739 | 69 | 21 | 4.0 | 11.0 | 0.01 | 0.01 | 0.01 | 97 | 1015.2 |
| 20260905114238 | 69 | 5 | 4.0 | 9.0 | 0.01 | 0.01 | 0.01 | 97 | 1015.1 |
| 20260905113739 | 69 | 31 | 4.0 | 8.0 | 0.01 | 0.01 | 0.01 | 97 | 1015.1 |
| 20260905113240 | 69 | 54 | 4.0 | 9.0 | 0.01 | 0.01 | 0.01 | 97 | 1015.1 |
| 20260905113010 | 69 | 50 | 4.0 | 9.0 | 0.01 | 0.02 | 0.01 | 97 | 1015.0 |
| 20260905112234 | 69 | 343 | 4.0 | 8.0 | 0.01 | 0.08 | 0.01 | 97 | 1014.9 |
| 20260905111733 | 69 | 5 | 4.0 | 9.0 | 0.01 | 0.08 | 0.01 | 97 | 1014.9 |
| 20260905111231 | 69 | 19 | 4.0 | 9.0 | 0.01 | 0.08 | 0.01 | 97 | 1014.9 |
| 20260905111003 | 69 | 42 | 3.0 | 9.0 | 0.01 | 0.09 | 0.01 | 97 | 1014.9 |
| 20260905110231 | 69 | 32 | 4.0 | 9.0 | 0.00 | 0.08 | 0.01 | 97 | 1014.8 |
| 20260905105731 | 69 | 17 | 4.0 | 9.0 | 0.00 | 0.08 | 0.00 | 97 | 1014.9 |
| 20260905105226 | 69 | 351 | 3.0 | 8.0 | 0.00 | 0.08 | 0.00 | 96 | 1014.8 |
| 20260905104723 | 69 | 19 | 3.0 | 8.0 | 0.00 | 0.08 | 0.00 | 96 | 1014.9 |
| 20260905104454 | 69 | 21 | 4.0 | 9.0 | 0.00 | 0.09 | 0.00 | 96 | 1014.9 |
| 20260905103720 | 69 | 51 | 3.0 | 9.0 | 0.00 | 0.10 | 0.00 | 96 | 1014.8 |
| 20260905103220 | 69 | 5 | 3.0 | 8.0 | 0.00 | 0.11 | 0.00 | 96 | 1014.8 |
| 20260905102720 | 69 | 60 | 3.0 | 8.0 | 0.00 | 0.13 | 0.00 | 96 | 1014.8 |
| 20260905102218 | 69 | 32 | 4.0 | 8.0 | 0.00 | 0.15 | 0.00 | 96 | 1014.8 |
| 20260905101949 | 69 | 293 | 3.0 | 8.0 | 0.00 | 0.18 | 0.00 | 96 | 1014.9 |
| 20260905101220 | 69 | 37 | 3.0 | 8.0 | 0.00 | 0.30 | 0.00 | 96 | 1014.9 |
| 20260905100717 | 69 | 41 | 4.0 | 9.0 | 0.00 | 0.39 | 0.00 | 95 | 1014.8 |
| 20260905100217 | 69 | 21 | 5.0 | 11.0 | 0.00 | 0.39 | 0.00 | 95 | 1014.8 |
| 20260905095948 | 69 | 27 | 5.0 | 11.0 | 0.00 | 0.39 | 0.00 | 95 | 1014.8 |
| 20260905095218 | 69 | 348 | 4.0 | 11.0 | 0.00 | 0.39 | 0.00 | 95 | 1014.8 |
| 20260905094945 | 69 | 350 | 5.0 | 11.0 | 0.00 | 0.39 | 0.00 | 95 | 1014.7 |
| 20260905094214 | 69 | 26 | 6.0 | 11.0 | 0.00 | 0.40 | 0.00 | 95 | 1014.7 |
| 20260905093714 | 70 | 42 | 4.0 | 11.0 | 0.00 | 0.40 | 0.00 | 94 | 1014.5 |
| 20260905093212 | 70 | 46 | 5.0 | 12.0 | 0.00 | 0.40 | 0.00 | 95 | 1014.5 |
| 20260905092712 | 70 | 26 | 5.0 | 12.0 | 0.00 | 0.40 | 0.00 | 94 | 1014.5 |
| 20260905092209 | 70 | 311 | 5.0 | 10.0 | 0.00 | 0.41 | 0.00 | 94 | 1014.5 |
| 20260905091704 | 70 | 26 | 6.0 | 10.0 | 0.00 | 0.41 | 0.00 | 94 | 1014.5 |
| 20260905091205 | 71 | 5 | 5.0 | 12.0 | 0.00 | 0.43 | 0.00 | 94 | 1014.4 |
| 20260905090706 | 71 | 23 | 4.0 | 12.0 | 0.00 | 0.50 | 0.00 | 94 | 1014.5 |
| 20260905090205 | 71 | 279 | 5.0 | 14.0 | 0.00 | 0.55 | 0.00 | 94 | 1014.5 |
| 20260905085704 | 71 | 327 | 5.0 | 14.0 | 0.00 | 0.62 | 0.00 | 94 | 1014.4 |
| 20260905085205 | 71 | 24 | 3.0 | 9.0 | 0.00 | 0.65 | 0.00 | 94 | 1014.5 |
| 20260905084709 | 71 | 36 | 3.0 | 8.0 | 0.00 | 0.71 | 0.00 | 94 | 1014.5 |
| 20260905084159 | 71 | 23 | 2.0 | 8.0 | 0.00 | 0.71 | 0.00 | 94 | 1014.4 |
| 20260905083658 | 71 | 20 | 1.0 | 4.0 | 0.00 | 0.73 | 0.00 | 94 | 1014.4 |
| 20260905083158 | 71 | 21 | 2.0 | 5.0 | 0.00 | 0.73 | 0.00 | 94 | 1014.3 |
| 20260905082659 | 71 | 44 | 2.0 | 6.0 | 0.00 | 0.74 | 0.00 | 94 | 1014.4 |
| 20260905082158 | 71 | 52 | 2.0 | 6.0 | 0.00 | 0.74 | 0.00 | 94 | 1014.4 |
| 20260905081659 | 71 | 5 | 1.0 | 4.0 | 0.00 | 0.74 | 0.00 | 94 | 1014.3 |
| 20260905081156 | 71 | 36 | 2.0 | 5.0 | 0.00 | 0.74 | 0.00 | 94 | 1014.3 |
| 20260905080655 | 71 | 40 | 2.0 | 5.0 | 0.00 | 0.74 | 0.00 | 94 | 1014.3 |
| 20260905080152 | 71 | 29 | 1.0 | 3.0 | 0.00 | 0.74 | 0.00 | 94 | 1014.2 |
| 20260905075652 | 71 | 26 | 1.0 | 5.0 | 0.00 | 0.74 | 0.00 | 94 | 1014.3 |
| 20260905075153 | 71 | 25 | 2.0 | 5.0 | 0.00 | 0.75 | 0.00 | 94 | 1014.3 |
| 20260905074654 | 71 | 37 | 2.0 | 5.0 | 0.00 | 0.75 | 0.00 | 94 | 1014.3 |
| 20260905074149 | 71 | 355 | 2.0 | 5.0 | 0.00 | 0.77 | 0.00 | 94 | 1014.2 |
| 20260905073648 | 71 | 58 | 1.0 | 4.0 | 0.00 | 0.79 | 0.00 | 94 | 1014.2 |
| 20260905073419 | 71 | 61 | 1.0 | 4.0 | 0.00 | 0.81 | 0.00 | 94 | 1014.1 |
| 20260905072647 | 71 | 62 | 1.0 | 4.0 | 0.00 | 0.84 | 0.00 | 95 | 1014.0 |
| 20260905072146 | 71 | 62 | 1.0 | 4.0 | 0.00 | 0.85 | 0.00 | 94 | 1014.1 |
| 20260905071918 | 71 | 42 | 2.0 | 5.0 | 0.00 | 0.85 | 0.00 | 94 | 1014.1 |
| 20260905071142 | 71 | 39 | 2.0 | 5.0 | 0.00 | 0.86 | 0.00 | 94 | 1014.1 |
| 20260905070642 | 71 | 69 | 2.0 | 4.0 | 0.00 | 0.86 | 0.00 | 95 | 1014.2 |
| 20260905070144 | 71 | 59 | 2.0 | 4.0 | 0.00 | 0.86 | 0.00 | 94 | 1014.2 |
| 20260905065642 | 71 | 49 | 1.0 | 4.0 | 0.00 | 0.86 | 0.00 | 95 | 1014.3 |
| 20260905065140 | 72 | 36 | 2.0 | 4.0 | 0.00 | 0.87 | 0.00 | 94 | 1014.2 |
| 20260905064645 | 72 | 47 | 2.0 | 4.0 | 0.00 | 0.89 | 0.00 | 94 | 1014.2 |
| 20260905064641 | 71 | 34 | 2.0 | 4.0 | 0.00 | 0.88 | 0.00 | 94 | 1014.2 |
| 20260905063635 | 72 | 42 | 2.0 | 5.0 | 0.00 | 0.90 | 0.00 | 94 | 1014.2 |
| 20260905063134 | 72 | 71 | 2.0 | 6.0 | 0.00 | 0.90 | 0.00 | 94 | 1014.2 |
| 20260905062637 | 72 | 69 | 2.0 | 6.0 | 0.00 | 0.91 | 0.00 | 94 | 1014.3 |
| 20260905062134 | 72 | 67 | 2.0 | 4.0 | 0.00 | 0.92 | 0.00 | 94 | 1014.3 |
| 20260905061635 | 72 | 38 | 2.0 | 5.0 | 0.00 | 0.92 | 0.00 | 94 | 1014.3 |
| 20260905061132 | 72 | 38 | 2.0 | 5.0 | 0.00 | 0.92 | 0.00 | 94 | 1014.3 |
| 20260905060630 | 72 | 53 | 2.0 | 5.0 | 0.00 | 0.92 | 0.00 | 94 | 1014.2 |
| 20260905060128 | 72 | 57 | 2.0 | 6.0 | 0.00 | 0.92 | 0.00 | 94 | 1014.2 |
| 20260905055628 | 72 | 42 | 2.0 | 6.0 | 0.00 | 0.92 | 0.00 | 94 | 1014.2 |
| 20260905055129 | 72 | 57 | 2.0 | 7.0 | 0.00 | 0.92 | 0.00 | 94 | 1014.2 |
| 20260905054900 | 72 | 42 | 2.0 | 7.0 | 0.00 | 0.92 | 0.00 | 94 | 1014.2 |
| 20260905054126 | 72 | 46 | 2.0 | 7.0 | 0.00 | 0.92 | 0.00 | 94 | 1014.2 |
| 20260905053625 | 72 | 51 | 3.0 | 7.0 | 0.00 | 0.92 | 0.00 | 94 | 1014.3 |
| 20260905053123 | 72 | 42 | 2.0 | 7.0 | 0.00 | 0.92 | 0.00 | 94 | 1014.3 |
| 20260905052622 | 72 | 27 | 2.0 | 5.0 | 0.00 | 0.92 | 0.00 | 94 | 1014.3 |
| 20260905052122 | 72 | 78 | 2.0 | 5.0 | 0.00 | 0.92 | 0.00 | 94 | 1014.3 |
| 20260905051623 | 72 | 83 | 2.0 | 5.0 | 0.00 | 0.92 | 0.00 | 94 | 1014.2 |
| 20260905051120 | 72 | 35 | 2.0 | 5.0 | 0.00 | 0.92 | 0.00 | 94 | 1014.3 |
| 20260905050618 | 72 | 38 | 2.0 | 4.0 | 0.00 | 0.92 | 0.00 | 94 | 1014.3 |
| 20260905050116 | 72 | 55 | 2.0 | 4.0 | 0.00 | 0.92 | 0.00 | 94 | 1014.3 |
| 20260905045846 | 72 | 17 | 2.0 | 4.0 | 0.00 | 0.92 | 0.92 | 94 | 1014.3 |
| 20260905045114 | 72 | 51 | 1.0 | 3.0 | 0.00 | 0.92 | 0.92 | 94 | 1014.3 |
| 20260905044615 | 72 | 49 | 1.0 | 4.0 | 0.00 | 0.93 | 0.92 | 94 | 1014.1 |
| 20260905044108 | 73 | 65 | 1.0 | 4.0 | 0.00 | 0.93 | 0.92 | 94 | 1014.1 |
| 20260905043608 | 73 | 38 | 2.0 | 8.0 | 0.00 | 0.98 | 0.92 | 94 | 1014.2 |
| 20260905043108 | 73 | 38 | 2.0 | 8.0 | 0.00 | 1.00 | 0.92 | 94 | 1014.2 |
| 20260905042608 | 73 | 5 | 2.0 | 8.0 | 0.00 | 1.03 | 0.92 | 94 | 1014.2 |
| 20260905042340 | 73 | 80 | 2.0 | 7.0 | 0.00 | 1.05 | 0.92 | 94 | 1014.2 |
| 20260905041609 | 73 | 58 | 2.0 | 5.0 | 0.00 | 1.06 | 0.92 | 94 | 1014.2 |
| 20260905041102 | 73 | 68 | 2.0 | 5.0 | 0.00 | 1.06 | 0.92 | 94 | 1014.3 |
| 20260905040601 | 73 | 27 | 2.0 | 8.0 | 0.00 | 1.06 | 0.92 | 94 | 1014.2 |
| 20260905040100 | 73 | 49 | 2.0 | 8.0 | 0.00 | 1.06 | 0.92 | 94 | 1014.3 |
| 20260905035832 | 73 | 97 | 2.0 | 8.0 | 0.00 | 1.06 | 0.92 | 94 | 1014.2 |
| 20260905035100 | 73 | 98 | 2.0 | 8.0 | 0.00 | 1.06 | 0.92 | 94 | 1014.2 |
| 20260905034833 | 73 | 38 | 2.0 | 7.0 | 0.00 | 1.06 | 0.92 | 93 | 1014.1 |
| 20260905034326 | 73 | 56 | 3.0 | 9.0 | 0.00 | 1.06 | 0.92 | 93 | 1014.0 |
| 20260905033555 | 73 | 28 | 4.0 | 9.0 | 0.00 | 1.06 | 0.92 | 93 | 1013.9 |
| 20260905033328 | 73 | 62 | 4.0 | 9.0 | 0.00 | 1.06 | 0.92 | 93 | 1013.9 |
| 20260905032556 | 73 | 74 | 4.0 | 9.0 | 0.00 | 1.06 | 0.92 | 93 | 1013.9 |
| 20260905032056 | 73 | 65 | 3.0 | 8.0 | 0.00 | 1.06 | 0.92 | 93 | 1014.0 |
| 20260905031828 | 73 | 76 | 3.0 | 9.0 | 0.00 | 1.06 | 0.92 | 93 | 1014.1 |
| 20260905031101 | 73 | 30 | 3.0 | 7.0 | 0.00 | 1.06 | 0.92 | 93 | 1014.1 |
| 20260905031056 | 73 | 49 | 3.0 | 9.0 | 0.00 | 1.06 | 0.92 | 93 | 1014.2 |
| 20260905030050 | 74 | 41 | 2.0 | 6.0 | 0.00 | 1.09 | 0.92 | 92 | 1014.2 |
| 20260905025823 | 74 | 72 | 2.0 | 5.0 | 0.00 | 1.10 | 0.92 | 92 | 1014.1 |
| 20260905025047 | 74 | 67 | 2.0 | 5.0 | 0.00 | 1.12 | 0.92 | 92 | 1014.1 |
| 20260905024550 | 74 | 14 | 2.0 | 5.0 | 0.00 | 1.12 | 0.92 | 92 | 1014.2 |
| 20260905024046 | 74 | 355 | 2.0 | 5.0 | 0.00 | 1.14 | 0.92 | 92 | 1014.1 |
| 20260905023546 | 74 | 26 | 2.0 | 6.0 | 0.00 | 1.16 | 0.92 | 92 | 1013.9 |
| 20260905023047 | 74 | 46 | 2.0 | 6.0 | 0.00 | 1.17 | 0.92 | 91 | 1013.9 |
| 20260905022547 | 74 | 46 | 2.0 | 6.0 | 0.00 | 1.17 | 0.92 | 91 | 1013.9 |
| 20260905022045 | 74 | 24 | 2.0 | 6.0 | 0.00 | 1.17 | 0.92 | 91 | 1013.9 |
| 20260905021547 | 74 | 58 | 2.0 | 7.0 | 0.00 | 1.17 | 0.92 | 91 | 1013.7 |
| 20260905021052 | 74 | 86 | 3.0 | 7.0 | 0.00 | 1.17 | 0.92 | 91 | 1013.7 |
| 20260905020817 | 74 | 330 | 3.0 | 5.0 | 0.00 | 1.17 | 0.92 | 90 | 1013.8 |
| 20260905020044 | 74 | 315 | 2.0 | 5.0 | 0.00 | 1.17 | 0.92 | 90 | 1013.9 |
| 20260905015814 | 74 | 96 | 2.0 | 6.0 | 0.00 | 1.17 | 0.92 | 90 | 1013.7 |
| 20260905015313 | 74 | 96 | 2.0 | 6.0 | 0.00 | 1.17 | 0.92 | 90 | 1013.7 |
| 20260905014542 | 74 | 102 | 2.0 | 3.0 | 0.00 | 1.17 | 0.92 | 90 | 1013.8 |
| 20260905014313 | 74 | 105 | 2.0 | 4.0 | 0.00 | 1.17 | 0.92 | 90 | 1013.7 |
| 20260905014156 | 74 | 107 | 4.0 | 7.0 | 0.00 | 1.17 | 0.92 | 90 | 1013.7 |
| 20260905013041 | 74 | 92 | 5.0 | 9.0 | 0.00 | 1.17 | 0.92 | 89 | 1013.5 |
| 20260905013037 | 74 | 107 | 4.0 | 9.0 | 0.00 | 1.17 | 0.92 | 90 | 1013.6 |
| 20260905012039 | 74 | 84 | 5.0 | 9.0 | 0.00 | 1.17 | 0.92 | 89 | 1013.6 |
| 20260905011538 | 74 | 115 | 6.0 | 10.0 | 0.00 | 1.17 | 0.92 | 89 | 1013.5 |
| 20260905011038 | 74 | 79 | 6.0 | 10.0 | 0.00 | 1.17 | 0.92 | 89 | 1013.3 |
| 20260905010539 | 74 | 80 | 5.0 | 9.0 | 0.00 | 1.17 | 0.92 | 89 | 1013.4 |
| 20260905010304 | 74 | 103 | 4.0 | 8.0 | 0.00 | 1.17 | 0.92 | 89 | 1013.3 |
| 20260905005535 | 75 | 117 | 3.0 | 7.0 | 0.00 | 1.17 | 0.92 | 90 | 1013.2 |
| 20260905005035 | 75 | 99 | 4.0 | 6.0 | 0.00 | 1.17 | 0.92 | 90 | 1013.3 |
| 20260905004805 | 75 | 103 | 4.0 | 8.0 | 0.00 | 1.17 | 0.92 | 90 | 1013.3 |
| 20260905004034 | 75 | 124 | 5.0 | 8.0 | 0.00 | 1.17 | 0.92 | 90 | 1013.3 |
| 20260905003535 | 75 | 102 | 5.0 | 8.0 | 0.00 | 1.17 | 0.92 | 90 | 1013.4 |
| 20260905003030 | 75 | 107 | 5.0 | 8.0 | 0.00 | 1.17 | 0.92 | 90 | 1013.4 |
| 20260905002803 | 75 | 94 | 4.0 | 8.0 | 0.00 | 1.17 | 0.92 | 90 | 1013.4 |
| 20260905002305 | 75 | 96 | 5.0 | 9.0 | 0.00 | 1.17 | 0.92 | 89 | 1013.3 |
| 20260905001530 | 75 | 114 | 5.0 | 9.0 | 0.00 | 1.17 | 0.92 | 89 | 1013.4 |
| 20260905001031 | 75 | 98 | 4.0 | 8.0 | 0.00 | 1.17 | 0.92 | 89 | 1013.3 |
| 20260905000531 | 75 | 84 | 4.0 | 8.0 | 0.00 | 1.17 | 0.92 | 89 | 1013.3 |
| 20260905000028 | 75 | 80 | 4.0 | 8.0 | 0.00 | 1.17 | 0.92 | 88 | 1013.3 |
| 20260904235527 | 75 | 62 | 4.0 | 8.0 | 0.00 | 1.17 | 0.92 | 88 | 1013.2 |
| 20260904235029 | 75 | 74 | 4.0 | 8.0 | 0.00 | 1.17 | 0.92 | 88 | 1013.1 |
| 20260904234528 | 75 | 82 | 4.0 | 8.0 | 0.00 | 1.17 | 0.92 | 87 | 1013.3 |
| 20260904234028 | 75 | 76 | 5.0 | 9.0 | 0.00 | 1.17 | 0.92 | 87 | 1013.0 |
| 20260904233526 | 75 | 96 | 5.0 | 10.0 | 0.00 | 1.17 | 0.92 | 87 | 1013.1 |
| 20260904233021 | 76 | 65 | 7.0 | 12.0 | 0.00 | 1.17 | 0.92 | 87 | 1013.0 |
| 20260904232519 | 76 | 86 | 8.0 | 12.0 | 0.00 | 1.17 | 0.92 | 87 | 1012.8 |
| 20260904232021 | 76 | 63 | 7.0 | 12.0 | 0.00 | 1.17 | 0.92 | 87 | 1012.7 |
| 20260904231516 | 76 | 105 | 7.0 | 12.0 | 0.00 | 1.17 | 0.92 | 87 | 1012.8 |
| 20260904231016 | 76 | 96 | 6.0 | 12.0 | 0.00 | 1.17 | 0.92 | 87 | 1012.9 |
| 20260904230510 | 76 | 79 | 5.0 | 11.0 | 0.00 | 1.17 | 0.92 | 86 | 1013.0 |
| 20260904230009 | 76 | 44 | 6.0 | 11.0 | 0.00 | 1.17 | 0.92 | 86 | 1012.9 |
| 20260904225508 | 76 | 78 | 7.0 | 14.0 | 0.00 | 1.17 | 0.92 | 86 | 1012.7 |
| 20260904225238 | 77 | 92 | 8.0 | 14.0 | 0.00 | 1.17 | 0.92 | 87 | 1012.6 |
| 20260904224506 | 77 | 61 | 8.0 | 12.0 | 0.00 | 1.17 | 0.92 | 87 | 1012.6 |
| 20260904224007 | 77 | 84 | 9.0 | 16.0 | 0.00 | 1.17 | 0.92 | 87 | 1012.5 |
| 20260904223504 | 77 | 89 | 8.0 | 16.0 | 0.00 | 1.17 | 0.92 | 86 | 1012.4 |
| 20260904223006 | 78 | 92 | 6.0 | 13.0 | 0.00 | 1.17 | 0.92 | 86 | 1012.4 |
| 20260904222503 | 78 | 76 | 5.0 | 12.0 | 0.00 | 1.17 | 0.92 | 86 | 1012.4 |
| 20260904222003 | 78 | 85 | 5.0 | 12.0 | 0.00 | 1.17 | 0.92 | 86 | 1012.3 |
| 20260904221504 | 79 | 94 | 5.0 | 11.0 | 0.00 | 1.17 | 0.92 | 85 | 1012.2 |
| 20260904221002 | 79 | 70 | 4.0 | 10.0 | 0.00 | 1.17 | 0.92 | 85 | 1012.1 |
| 20260904220502 | 80 | 55 | 4.0 | 10.0 | 0.00 | 1.17 | 0.92 | 85 | 1012.1 |
| 20260904220228 | 80 | 100 | 3.0 | 10.0 | 0.00 | 1.17 | 0.92 | 84 | 1012.1 |
| 20260904215457 | 80 | 64 | 4.0 | 9.0 | 0.00 | 1.17 | 0.92 | 83 | 1012.1 |
| 20260904214958 | 81 | 53 | 4.0 | 9.0 | 0.00 | 1.17 | 0.92 | 82 | 1012.1 |
| 20260904214457 | 82 | 35 | 4.0 | 8.0 | 0.00 | 1.17 | 0.92 | 81 | 1012.1 |
| 20260904214227 | 83 | 36 | 3.0 | 7.0 | 0.00 | 1.17 | 0.92 | 80 | 1012.0 |
| 20260904213455 | 83 | 65 | 2.0 | 7.0 | 0.00 | 1.17 | 0.92 | 78 | 1012.0 |
| 20260904212956 | 84 | 15 | 1.0 | 4.0 | 0.00 | 1.17 | 0.92 | 77 | 1012.0 |
| 20260904212452 | 84 | 172 | 1.0 | 4.0 | 0.00 | 1.17 | 0.92 | 76 | 1011.9 |
| 20260904211951 | 84 | 169 | 0.0 | 3.0 | 0.00 | 1.17 | 0.92 | 76 | 1011.8 |
| 20260904211450 | 84 | 219 | 0.0 | 2.0 | 0.00 | 1.17 | 0.92 | 76 | 1011.7 |
| 20260904210949 | 84 | 218 | 1.0 | 4.0 | 0.00 | 1.17 | 0.92 | 77 | 1011.7 |
| 20260904210447 | 84 | 220 | 3.0 | 5.0 | 0.00 | 1.17 | 0.92 | 77 | 1011.6 |
| 20260904205948 | 84 | 225 | 2.0 | 5.0 | 0.00 | 1.17 | 0.92 | 77 | 1011.6 |
| 20260904205713 | 84 | 5 | 2.0 | 4.0 | 0.00 | 1.17 | 0.92 | 78 | 1011.6 |
| 20260904204941 | 85 | 32 | 2.0 | 5.0 | 0.00 | 1.17 | 0.92 | 77 | 1011.6 |
| 20260904204438 | 85 | 33 | 2.0 | 5.0 | 0.00 | 1.17 | 0.92 | 77 | 1011.6 |
| 20260904203936 | 85 | 336 | 1.0 | 4.0 | 0.00 | 1.17 | 0.92 | 76 | 1011.5 |
| 20260904203438 | 85 | 334 | 3.0 | 8.0 | 0.00 | 1.17 | 0.92 | 76 | 1011.6 |
| 20260904203202 | 85 | 334 | 3.0 | 8.0 | 0.00 | 1.17 | 0.92 | 76 | 1011.7 |
| 20260904202432 | 85 | 315 | 2.0 | 8.0 | 0.00 | 1.17 | 0.92 | 74 | 1011.6 |
| 20260904202204 | 84 | 319 | 4.0 | 8.0 | 0.00 | 1.17 | 0.92 | 76 | 1011.6 |
| 20260904201431 | 84 | 328 | 4.0 | 8.0 | 0.00 | 1.17 | 0.92 | 76 | 1011.6 |
| 20260904200929 | 85 | 330 | 3.0 | 8.0 | 0.00 | 1.17 | 0.92 | 75 | 1011.7 |
| 20260904200431 | 85 | 295 | 3.0 | 7.0 | 0.00 | 1.17 | 0.92 | 75 | 1011.8 |
| 20260904195925 | 85 | 301 | 3.0 | 9.0 | 0.00 | 1.17 | 0.92 | 75 | 1011.9 |
| 20260904195423 | 84 | 293 | 3.0 | 9.0 | 0.00 | 1.17 | 0.92 | 75 | 1012.0 |
| 20260904194923 | 84 | 315 | 2.0 | 6.0 | 0.00 | 1.17 | 0.92 | 77 | 1012.1 |
| 20260904194424 | 84 | 191 | 2.0 | 5.0 | 0.00 | 1.17 | 0.92 | 76 | 1012.1 |
| 20260904193923 | 84 | 209 | 2.0 | 5.0 | 0.00 | 1.17 | 0.92 | 77 | 1012.2 |
| 20260904193656 | 83 | 130 | 1.0 | 3.0 | 0.00 | 1.17 | 0.92 | 79 | 1012.3 |
| 20260904193152 | 83 | 5 | 2.0 | 6.0 | 0.00 | 1.17 | 0.92 | 79 | 1012.4 |
| 20260904193034 | 83 | 144 | 3.0 | 7.0 | 0.00 | 1.17 | 0.92 | 80 | 1012.4 |
| 20260904191923 | 82 | 188 | 3.0 | 7.0 | 0.00 | 1.17 | 0.92 | 79 | 1012.5 |
| 20260904191651 | 82 | 167 | 2.0 | 6.0 | 0.00 | 1.17 | 0.92 | 79 | 1012.5 |
| 20260904190917 | 82 | 154 | 2.0 | 6.0 | 0.00 | 1.17 | 0.92 | 80 | 1012.5 |
| 20260904190418 | 82 | 134 | 2.0 | 7.0 | 0.00 | 1.17 | 0.92 | 80 | 1012.5 |
| 20260904185911 | 82 | 259 | 2.0 | 7.0 | 0.00 | 1.17 | 0.92 | 80 | 1012.6 |
| 20260904185413 | 82 | 245 | 3.0 | 6.0 | 0.00 | 1.17 | 0.92 | 82 | 1012.6 |
| 20260904184911 | 81 | 171 | 4.0 | 7.0 | 0.00 | 1.17 | 0.92 | 80 | 1012.7 |
| 20260904184412 | 81 | 174 | 4.0 | 7.0 | 0.00 | 1.17 | 0.92 | 80 | 1012.6 |
| 20260904183911 | 80 | 187 | 4.0 | 7.0 | 0.00 | 1.17 | 0.92 | 81 | 1012.7 |
| 20260904183415 | 80 | 163 | 4.0 | 8.0 | 0.00 | 1.17 | 0.92 | 82 | 1012.7 |
| 20260904182908 | 80 | 176 | 4.0 | 8.0 | 0.00 | 1.17 | 0.92 | 80 | 1012.6 |
| 20260904182640 | 80 | 184 | 4.0 | 7.0 | 0.00 | 1.17 | 0.92 | 83 | 1012.6 |
| 20260904181905 | 80 | 179 | 3.0 | 7.0 | 0.00 | 1.17 | 0.92 | 81 | 1012.6 |
| 20260904181408 | 79 | 218 | 4.0 | 8.0 | 0.00 | 1.17 | 0.92 | 83 | 1012.7 |
| 20260904180906 | 79 | 211 | 4.0 | 8.0 | 0.00 | 1.17 | 0.92 | 83 | 1012.7 |
| 20260904180407 | 79 | 180 | 3.0 | 7.0 | 0.00 | 1.17 | 0.92 | 82 | 1012.7 |
| 20260904175900 | 79 | 211 | 3.0 | 7.0 | 0.00 | 1.17 | 0.92 | 82 | 1012.7 |
| 20260904175359 | 79 | 177 | 3.0 | 6.0 | 0.00 | 1.17 | 0.92 | 83 | 1012.6 |
| 20260904174856 | 78 | 230 | 5.0 | 11.0 | 0.00 | 1.17 | 0.92 | 83 | 1012.6 |
| 20260904174353 | 78 | 185 | 6.0 | 11.0 | 0.00 | 1.17 | 0.92 | 83 | 1012.7 |
| 20260904173854 | 78 | 212 | 4.0 | 11.0 | 0.00 | 1.17 | 0.92 | 82 | 1012.7 |
| 20260904173351 | 79 | 185 | 3.0 | 11.0 | 0.00 | 1.17 | 0.92 | 83 | 1012.8 |
| 20260904172852 | 79 | 198 | 4.0 | 11.0 | 0.00 | 1.17 | 0.92 | 84 | 1012.8 |
| 20260904172624 | 78 | 225 | 3.0 | 9.0 | 0.00 | 1.17 | 0.92 | 83 | 1012.8 |
| 20260904171852 | 78 | 227 | 3.0 | 6.0 | 0.00 | 1.17 | 0.92 | 84 | 1012.8 |
| 20260904171351 | 78 | 229 | 3.0 | 6.0 | 0.00 | 1.17 | 0.92 | 86 | 1013.0 |
| 20260904170851 | 78 | 163 | 4.0 | 9.0 | 0.00 | 1.17 | 0.92 | 85 | 1013.0 |
| 20260904170352 | 78 | 191 | 4.0 | 9.0 | 0.00 | 1.17 | 0.92 | 85 | 1013.0 |
| 20260904165848 | 78 | 188 | 3.0 | 8.0 | 0.00 | 1.17 | 0.92 | 86 | 1013.1 |
| 20260904165347 | 77 | 244 | 3.0 | 8.0 | 0.00 | 1.17 | 0.92 | 85 | 1013.0 |
| 20260904164845 | 77 | 236 | 3.0 | 8.0 | 0.00 | 1.17 | 0.92 | 84 | 1012.9 |
| 20260904164617 | 77 | 132 | 3.0 | 7.0 | 0.00 | 1.17 | 0.92 | 85 | 1012.8 |
| 20260904163845 | 76 | 270 | 3.0 | 7.0 | 0.00 | 1.17 | 0.92 | 86 | 1012.8 |
| 20260904163346 | 76 | 314 | 2.0 | 7.0 | 0.00 | 1.17 | 0.92 | 87 | 1012.8 |
| 20260904162842 | 75 | 183 | 1.0 | 6.0 | 0.00 | 1.17 | 0.92 | 87 | 1012.8 |
| 20260904162342 | 75 | 222 | 1.0 | 4.0 | 0.00 | 1.17 | 0.92 | 88 | 1012.7 |
| 20260904161841 | 75 | 199 | 2.0 | 5.0 | 0.00 | 1.17 | 0.92 | 88 | 1012.7 |